Location: Elaine Barite Prospect
(34.1431°N, 106.7922°W)
Time: 06:49:48
(UTC+00:00)

ARIANE 6 FM1 Upper Stage - Pass Details

Date: 13 December 2025
Orbit: 522 x 610 km, 62.0° (Epoch: 12 January)

Event Time Altitude Azimuth Distance (km) Brightness Sun altitude
Rises 12:51:36 0° 195° (SSW) 2,715 6.2 -14.7°
Reaches altitude 10° 12:53:55 10° 187° (S) 1,810 5.4 -14.2°
Maximum altitude 12:57:43 40° 118° (ESE) 807 4.1 -13.5°
Drops below altitude 10° 13:01:28 10° 48° (NE) 1,780 5.6 -12.8°
Sets 13:03:43 0° 41° (NE) 2,664 6.4 -12.3°
